Location: C.E.K. Mees Observatory
(42.7003°N, 77.4088°W)
Time: 12:05:05
(UTC-05:00)

Tiangong 2 - Pass Details

Date: 10 October 2017
Orbit: 386 x 390 km, 42.8° (Epoch: 13 December)

Event Time Altitude Azimuth Distance (km) Brightness Sun altitude
Exits shadow 05:36:50 31° 175° (S) 702 2.3 -19.2°
Maximum altitude 05:37:15 33° 156° (SSE) 678 2.4 -19.1°
Drops below altitude 10° 05:40:11 10° 90° (E) 1,423 5.2 -18.6°
Sets 05:42:23 0° 81° (E) 2,281 6.7 -18.2°
